Aurora, OR

7:26 AM PST on January 24, 2017 (GMT -0800)
Aurora State

Weather History for KUAO - April, 2013

Change the Weather History Date:

Thursday, April 4, 2013

  Actual Average Record
Temperature  
Mean Temperature 57 °F -  
Max Temperature 61 °F - 75 °F (2002)
Min Temperature 53 °F - 30 °F (1997)
Degree Days  
Heating Degree Days 8    
Month to date heating degree days 33  
Since 1 July heating degree days 3687  
Cooling Degree Days 0    
Month to date cooling degree days 0  
Year to date cooling degree days 0  
Growing Degree Days 7 (Base 50)    
Moisture  
Dew Point 52 °F    
Average Humidity 82    
Maximum Humidity 100    
Minimum Humidity 64    
Precipitation  
Precipitation 0.21 in - 0.64 in (1954)
Month to date precipitation 0.21  
Year to date precipitation 6.22  
Sea Level Pressure  
Sea Level Pressure 29.78 in    
Wind  
Wind Speed 7 mph (SSW)    
Max Wind Speed 18 mph    
Max Gust Speed 31 mph    
Visibility 8 miles    
Events Rain    
T = Trace of Precipitation, MM = Missing Value Source: NWS Daily Summary

Daily Weather History Graph

Daily Weather History Graph

Search for Another Location

Airport or City:

Trip Planner

Search our weather history database for the weather conditions in past years. The results will help you decide how hot, cold, wet, or windy it might be!

Date:

Astronomy

Apr. 04, 2013 Rise Set
Actual Time 6:45 AM PDT 7:43 PM PDT
Civil Twilight 6:15 AM PDT 8:13 PM PDT
Nautical Twilight 5:39 AM PDT 8:49 PM PDT
Astronomical Twilight 5:01 AM PDT 9:27 PM PDT
Moon 3:31 AM PDT (4/4) 1:53 PM PDT (4/4)
Length of Visible Light 13h 58m
Length of Day
12h 58m
Waning Crescent, 32% of the Moon is Illuminated
Apr 4
Waning Crescent
Apr 10
New
Apr 18
First Quarter
Apr 25
Full
May 2
Last Quarter

Hourly Weather History & Observations

Time (PDT) Temp. Dew Point Humidity Pressure Visibility Wind Dir Wind Speed Gust Speed Precip Events Conditions
12:53 AM 57.0 °F 51.1 °F 81% 29.90 in 10.0 mi North 8.1 mph - N/A   Overcast
1:53 AM 57.0 °F 51.1 °F 81% 29.88 in 10.0 mi North 6.9 mph - N/A   Overcast
2:53 AM 55.0 °F 51.1 °F 86% 29.87 in 10.0 mi Calm Calm - N/A   Overcast
3:53 AM 55.9 °F 51.1 °F 84% 29.82 in 10.0 mi Calm Calm - 0.00 in Rain Light Rain
4:53 AM 54.0 °F 51.1 °F 90% 29.78 in 10.0 mi NNE 6.9 mph - 0.00 in   Mostly Cloudy
5:53 AM 54.0 °F 50.0 °F 86% 29.76 in 10.0 mi WSW 4.6 mph - N/A   Overcast
6:53 AM 53.1 °F 51.1 °F 93% 29.75 in 10.0 mi Calm Calm - N/A   Overcast
7:53 AM 53.1 °F 52.0 °F 96% 29.75 in 10.0 mi South 3.5 mph - N/A   Overcast
8:53 AM 55.0 °F 52.0 °F 89% 29.75 in 9.0 mi Calm Calm - 0.00 in Rain Light Rain
9:53 AM 54.0 °F 53.1 °F 97% 29.75 in 6.0 mi Calm Calm - 0.03 in Rain Light Rain
10:53 AM 55.0 °F 53.1 °F 93% 29.75 in 6.0 mi Calm Calm - 0.02 in Rain Light Rain
11:53 AM 55.9 °F 54.0 °F 93% 29.74 in 4.0 mi Calm Calm - 0.03 in Rain Light Rain
12:53 PM 57.0 °F 55.0 °F 93% 29.72 in 4.0 mi NE 4.6 mph - 0.04 in   Overcast
1:08 PM 57.2 °F 55.4 °F 94% 29.72 in 4.0 mi Calm Calm - N/A   Overcast
1:18 PM 57.2 °F 55.4 °F 94% 29.72 in 4.0 mi SE 3.5 mph - N/A   Overcast
1:29 PM 57.2 °F 55.4 °F 94% 29.71 in 4.0 mi Calm Calm - N/A   Overcast
1:53 PM 57.9 °F 55.0 °F 90% 29.71 in 4.0 mi East 3.5 mph - N/A   Overcast
2:17 PM 57.2 °F 55.4 °F 94% 29.73 in 1.8 mi SSW 3.5 mph - 0.02 in Rain Rain
2:39 PM 57.2 °F 55.4 °F 94% 29.74 in 2.0 mi SSW 12.7 mph 24.2 mph 0.09 in Rain Light Rain
2:53 PM 59.0 °F 55.0 °F 87% 29.75 in 10.0 mi SSW 10.4 mph 20.7 mph 0.09 in   Overcast
3:10 PM 60.8 °F 53.6 °F 77% 29.76 in 10.0 mi SSW 12.7 mph 23.0 mph N/A   Overcast
3:53 PM 60.1 °F 51.1 °F 72% 29.78 in 10.0 mi SSW 15.0 mph 27.6 mph N/A   Overcast
4:53 PM 61.0 °F 51.1 °F 70% 29.78 in 10.0 mi SSW 15.0 mph 23.0 mph 0.00 in   Overcast
5:53 PM 61.0 °F 51.1 °F 70% 29.79 in 10.0 mi SSW 9.2 mph - 0.00 in   Overcast
6:53 PM 60.1 °F 48.9 °F 67% 29.78 in 10.0 mi SSW 12.7 mph 20.7 mph 0.00 in   Mostly Cloudy
7:53 PM 57.0 °F 46.9 °F 69% 29.81 in 10.0 mi SSW 9.2 mph 17.3 mph N/A   Partly Cloudy
8:53 PM 55.9 °F 46.9 °F 72% 29.83 in 10.0 mi SSW 11.5 mph 21.9 mph N/A   Mostly Cloudy
9:53 PM 54.0 °F 48.0 °F 80% 29.86 in 10.0 mi SSW 10.4 mph 20.7 mph 0.00 in Rain Light Rain
10:53 PM 54.0 °F 46.9 °F 77% 29.87 in 10.0 mi South 10.4 mph 17.3 mph 0.00 in   Overcast
11:53 PM 54.0 °F 46.9 °F 77% 29.87 in 10.0 mi South 15.0 mph - N/A   Overcast